Regional Weather Roundup
Issued by NWS

Home | Current Version | Previous Version | Graphics & Text | Print | Product List | Glossary On
Versions: 1 2 3 4 5 6 7 8 9 10 11 12 13 14 15 16 17 18 19 20 21 22 23 24 25 26 27 28 29 30 31 32 33 34 35 36 37 38 39 40 41 42 43 44 45 46 47 48 49 50
000
ASUS43 KMPX 290210
RWRMN
WEATHER ROUNDUP FOR MINNESOTA
NATIONAL WEATHER SERVICE TWIN CITIES/CHANHASSEN MN
900 PM CDT SAT MAY 28 2016


NOTE: "FAIR" INDICATES FEW OR NO CLOUDS BELOW 12,000 FEET WITH NO
SIGNIFICANT WEATHER AND/OR OBSTRUCTIONS TO VISIBILITY. N/A MEANS
CURRENT SKY AND/OR WEATHER CONDITIONS ARE NOT AVAILABLE.

MNZ060>063-068>070-290300-
   Twin Cities Metro

CITY           SKY/WX    TMP DP  RH WIND       PRES   REMARKS
TWIN CITIES    CLOUDY    64  60  87 N3        29.79S
ST PAUL        CLOUDY    64  61  90 NW5       29.79S
CRYSTAL        CLOUDY    64  59  83 W3        29.79R
EDEN PRAIRIE   CLOUDY    63  59  87 N3        29.79S
SOUTH ST PAUL  CLOUDY    64  62  91 CALM      29.79S
LAKE ELMO      CLOUDY    63  63 100 CALM      29.80F
$$
MNZ001>005-007-008-013>017-022>024-027-028-290300-
   Northwest Minnesota

CITY           SKY/WX    TMP DP  RH WIND       PRES   REMARKS
BEMIDJI        DRIZZLE   58  57  97 CALM      29.81S
HALLOCK        CLOUDY    63  59  88 E5        29.86R
ROSEAU         RAIN      57  54  88 NE7       29.86S
WARROAD        RAIN      57  54  88 NE10      29.86F
THIEF RVR FALL CLOUDY    59  55  88 N10       29.86R
CROOKSTON      CLOUDY    61  61 100 NE5       29.85R
FOSSTON        CLOUDY    57  55  94 N6        29.83S
DETROIT LAKES  RAIN      59  57  94 N7        29.83S
MOORHEAD       CLOUDY    61  59  94 NW10      29.84S
PARK RAPIDS    CLOUDY    60  57  89 NW3       29.81R
MAHNOMEN       HVY RAIN  58  57  97 N6        29.82S
$$
MNZ006-009>011-018-025>026-290300-
   North Central Minnesota

CITY           SKY/WX    TMP DP  RH WIND       PRES   REMARKS
BAUDETTE       CLOUDY    56  54  93 N9        29.83S
FLAG ISLAND    CLOUDY    55  54  94 NE9       29.85F
INTL FALLS     CLOUDY    57  56  96 VRB6      29.81S FOG
WASKISH        RAIN      57  57 100 N6        29.82R
BIG FORK       RAIN      61  59  94 CALM      29.80S
LONGVILLE      LGT RAIN  59  57  94 CALM      29.81R
GRAND RAPIDS   CLOUDY    60  59  96 CALM      29.81R
CRANE LAKE     CLOUDY    59  59 100 CALM      29.82S
ORR            RAIN      61  57  88 CALM      29.77F
COOK           CLOUDY    61  59  94 CALM      29.80F FOG
WALKER         CLOUDY    58  57  97 CALM      29.81R
$$
MNZ012-019>021-037-290300-
   Northeast Minnesota

CITY           SKY/WX    TMP DP  RH WIND       PRES   REMARKS
DULUTH         LGT RAIN  54  53  97 E5        29.80F VSB 1/4
ELY            CLOUDY    61  61 100 CALM      29.80F
HIBBING        CLOUDY    59  58  96 S3        29.80S
EVELETH        RAIN      59  59 100 NE5       29.81F
DULUTH HARBOR  LGT RAIN  50  48  93 N8        29.81F
TWO HARBORS    LGT RAIN  55  50  82 CALM      29.79F VSB 1/2
SILVER BAY     FOG       55  55 100 CALM      29.80S VSB<1/4
GRAND MARAIS     N/A     45  45 100 S3        29.82F
G MARAIS ARPRT FOG       61  57  88 CALM      29.84S VSB 1
$$
MNZ029>031-032-039>041-046>048-054>057-064-290300-
   West Central Minnesota

CITY           SKY/WX    TMP DP  RH WIND       PRES   REMARKS
FERGUS FALLS   DRIZZLE   61  61 100 N5        29.80S
WHEATON        CLOUDY    66  59  77 NW5       29.85R
MORRIS         CLOUDY    63  59  88 W3        29.82R
ALEXANDRIA     CLOUDY    60  56  86 NW3       29.84R
ELBOW LAKE     DRIZZLE   61  58  91 N9        29.83S
WADENA         CLOUDY    57  57 100 CALM      29.82R
GLENWOOD       CLOUDY    61  57  88 W3        29.84R
APPLETON       CLOUDY    64  57  77 CALM      29.83R
BENSON         CLOUDY    63  57  82 N3        29.83R
ORTONVILLE     CLOUDY    64  57  77 W3        29.83S
MADISON        PTCLDY    63  57  82 CALM      29.84R
WILLMAR        MOCLDY    64  61  88 W5        29.84R
$$
MNZ033>034-036-042>043-049>051-058-059-290300-
   Central Minnesota

CITY           SKY/WX    TMP DP  RH WIND       PRES   REMARKS
ST CLOUD       CLOUDY    62  59  90 N3        29.81R
SAUK CENTRE    CLOUDY    60  56  87 CALM      29.83R
PAYNESVILLE    CLOUDY    63  60  92 CALM      29.82R
AITKIN         CLOUDY    63  55  77 CALM      29.79S
PINE RIVER     CLOUDY    61  61 100 CALM      29.84S
BRAINERD       CLOUDY    60  58  92 CALM      29.82R
STAPLES        CLOUDY    59  55  88 W3        29.82R
LONG PRAIRIE   CLOUDY    61  55  82 W5        29.83R
LITTLE FALLS   CLOUDY    61  55  82 CALM        N/A
LITCHFIELD     MOCLDY    64  61  88 CALM      29.82R
BUFFALO        CLOUDY    64  59  85 CALM      29.82R
MAPLE LAKE     MOCLDY    64  60  90 CALM      29.82R
HUTCHINSON     CLOUDY    65  60  86 CALM      29.83R
$$
MNZ037-044-045-052-053-290300-
   East Central Minnesota

CITY           SKY/WX    TMP DP  RH WIND       PRES   REMARKS
PRINCETON        N/A     64  61  88 CALM      29.81R
MORA           CLOUDY    61  55  82 CALM      29.82S
CAMBRIDGE      CLOUDY    64  55  72 CALM      29.78S
RUSH CITY      LGT RAIN  61  59  92 CALM      29.80F
MOOSE LAKE     CLOUDY    59  55  88 NE5       29.79S
HINCKLEY       CLOUDY    61  61 100 CALM      29.80R
CLOQUET        DRIZZLE   54  52  94 CALM      29.81S
MCGREGOR       CLOUDY    61  59  94 CALM      29.81R
$$
MNZ071>073-080-081-089-090-097-098-290300-
   Southwest Minnesota

CITY           SKY/WX    TMP DP  RH WIND       PRES   REMARKS
MONTEVIDEO     CLOUDY    63  63 100 CALM      29.85R
GRANITE FALLS  CLOUDY    65  62  90 W6        29.85R
CANBY          CLOUDY    65  61  88 NW5       29.86R
REDWOOD FALLS  CLOUDY    64  59  83 NW5       29.82R
OLIVIA         CLOUDY    64  61  88 NW6       29.82R
PIPESTONE      CLOUDY    63  57  82 CALM      29.87R
WINDOM         CLOUDY    63  57  82 CALM      29.83R
WORTHINGTON    LGT RAIN  62  58  86 N8        29.86R
JACKSON        LGT RAIN  63  59  88 CALM      29.84R
TRACY          PTCLDY    62  59  90 NW5       29.85R
SLAYTON        MOCLDY    60  59  94 NW6       29.87R
$$
MNZ065>067-074>077-082>085-091>093-290300-
   South Central Minnesota

CITY           SKY/WX    TMP DP  RH WIND       PRES   REMARKS
MANKATO        CLOUDY    63  59  88 N7        29.81R
NEW ULM        CLOUDY    63  61  94 N15       29.81S
ST JAMES       CLOUDY    59  55  88 N5        29.83R
FAIRMONT       CLOUDY    63  55  77 NW8       29.82R
GLENCOE        CLOUDY    65  62  91 CALM      29.80S
FARIBAULT      CLOUDY    66  63  88 NW6       29.80R
OWATONNA       LGT RAIN  64  63  94 S3        29.80R
WASECA         CLOUDY    63  59  88 NW6       29.81R
ALBERT LEA     RAIN      64  63  94 S5        29.81R
$$
MNZ078>079-086>088-094>096-290300-
   Southeast Minnesota

CITY           SKY/WX    TMP DP  RH WIND       PRES   REMARKS
ROCHESTER      MOCLDY    63  61  93 S3        29.81R
RED WING       PTCLDY    66  64  94 CALM      29.77F
STANTON        MOCLDY    65  60  85 N6        29.78S
DODGE CENTER   LGT RAIN  63  61  94 CALM      29.81R
WINONA         LGT RAIN  61  59  94 CALM      29.79F
AUSTIN         CLOUDY    63  59  88 SW5       29.81R
PRESTON        MOCLDY    61  59  93 S3        29.82S
$$
ABBREVIATIONS USED IN REMARKS
   TC - TEMPERATURES IN CELSIUS
  WCI - WIND CHILL INDEX
   HX - HEAT INDEX
  VSB - VISIBILITY
$$



USA.gov is the U.S. government's official web portal to all federal, state and local government web resources and services.